{"data":{"norad_id":51722,"epoch":"2026-05-24T22:56:46.074048Z","epoch_age_seconds":72122,"freshness":"FRESH","line1":"1 51722U 22016J   26144.95608882  .00000534  00000+0  51642-4 0  9994","line2":"2 51722  53.2140 346.7459 0000931  53.6382 306.4696 15.08835297234935","mean_motion":15.08835297,"eccentricity":9.31e-5,"inclination_deg":53.214,"raan_deg":346.7459,"arg_perigee_deg":53.6382,"mean_anomaly_deg":306.4696,"bstar":5.1642e-5,"rev_number":23493,"period_min":95.437852154118,"perigee_km":539.11370818843,"apogee_km":540.40182019352,"semimajor_km":6917.894764191,"source":"CELESTRAK","updated_at":"2026-05-25T13:38:16.921516Z"}}